www.pogodaiklimat.ru

Погода и климат >> Архив погоды >> Французская Полинезия >> Atuona


ПОГОДА в Atuona

  • Прогноз погоды в Atuona
  • Монитор погоды в Atuona
  • Климат города

АРХИВ ПОГОДЫ в Atuona

Время (UTC), дата Ветер
(напр.,м/с)
 
Видим.   Явления Облачность Т
(С)
Тd
(С)
f
(%)
Тe
(С)
Тes
(С)
Комфортность P
(гПа)
Po
(гПа)
Тmin
(С)
Tmax
(С)
R
(мм)
R24
(мм)
S
(см)
16 9.08 С 1 н/о н/о +22.6 +21.8 95 +30 +30 очень
душно
1015.0 1008.9
17 9.08 СВ 1 н/о н/о +24.9 +23.0 89 +33 +33 очень
душно
1015.6 1009.5
18 9.08 СВ 1 н/о {ливн. осадки, дождь} н/о +26.0 +23.3 85 +35 +35 очень
душно
1016.3 1010.2 0.2
19 9.08 В 7
{10}
30 км 4/4 750 м
[Cu Sc]
+27.9 +23.5 77 +38 +40 очень
душно
1016.3 1010.3
20 9.08 В 8
{12}
30 км 4/4 750 м
[Cu Sc]
+28.0 +22.7 73 +37 +39 очень
душно
1015.9 1009.9
21 9.08 В 7
{12}
40 км 3/3 750 м
[Cu med, cong]
+28.0 +22.0 70 +36 +40 очень
душно
1014.9 1008.9
22 9.08 В 7
{12}
40 км 3/3 750 м
[Cu med, cong]
+28.1 +22.6 72 +37 +41 очень
душно
1014.1 1008.1
23 9.08 В 6
{11}
40 км 1/1 800 м
[Cu med, cong]
+27.7 +22.2 72 +36 +41 очень
душно
1013.2 1007.2
00 10.08 В 3 н/о н/о +27.7 +21.7 70 +36 +36 очень
душно
1012.8 1006.8 +22.5
01 10.08 В 2 н/о н/о +27.4 +21.7 71 +35 +35 очень
душно
1012.5 1006.5
02 10.08 В 3 н/о н/о +26.4 +21.8 76 +34 +34 очень
душно
1012.4 1006.4
03 10.08 СВ 1 н/о н/о +26.1 +22.0 78 +34 +34 очень
душно
1012.9 1006.9
04 10.08 В 2 н/о н/о +25.9 +22.0 79 +33 +33 очень
душно
1013.4 1007.4
05 10.08 В 1 н/о н/о +25.5 +22.0 81 +33 +33 очень
душно
1014.4 1008.3
06 10.08 В 3 н/о н/о +25.5 +21.6 79 +33 +33 очень
душно
1015.0 1008.9
07 10.08 В 1 н/о н/о +25.3 +21.6 80 +32 +32 очень
душно
1015.5 1009.4
08 10.08 СВ 1 н/о н/о +24.1 +22.0 88 +31 +31 очень
душно
1015.5 1009.4
09 10.08 СВ 1 н/о н/о +23.6 +21.5 88 +30 +30 очень
душно
1015.3 1009.2
10 10.08 СВ 1 н/о н/о +23.3 +21.4 89 +31 +31 очень
душно
1015.1 1009.0
11 10.08 СВ 1 н/о н/о +23.1 +21.0 88 +31 +31 очень
душно
1014.5 1008.4
12 10.08 СВ 1 н/о н/о +22.8 +21.1 90 +30 +30 очень
душно
1014.1 1008.0 +28.4 +28.4
13 10.08 СВ 1 н/о н/о +22.4 +20.7 90 +29 +29 очень
душно
1013.9 1007.8
14 10.08 штиль 0 н/о н/о +22.3 +20.8 91 +29 +29 очень
душно
1014.1 1008.0
15 10.08 СВ 2
{2}
30 км 5/5 630 м
[Cu Sc]
+22.6 +21.1 91 +30 +30 очень
душно
1014.5 1008.4
16 10.08 СЗ 1
{2}
15 км осадки на расстоянии 8/8 630 м
[Cu Sc]
+22.9 +21.2 90 +30 +30 очень
душно
1015.1 1009.0
17 10.08 С 1
{2}
15 км осадки на расстоянии 8/8 630 м
[Cu Sc]
+24.4 +22.3 88 +32 +32 очень
душно
1015.9 1009.8
18 10.08 В 1
{5}
30 км 8/8 630 м
[Cu Sc]
+26.5 +23.8 85 +36 +38 очень
душно
1016.2 1010.2
19 10.08 В 3 н/о н/о +28.3 +20.3 62 +35 +35 очень
душно
1016.3 1010.3
20 10.08 В 3 н/о н/о +28.6 +20.1 60 +35 +35 очень
душно
1015.8 1009.8
21 10.08 В 7
{9}
40 км 3/3 800 м
[Cu med, cong]
+28.7 +17.2 50 +33 +37 очень
душно
1015.0 1009.0
22 10.08 В 5
{9}
н/о н/о +28.1 +18.8 57 +33 +33 очень
душно
1014.1 1008.1
23 10.08 В 7
{11}
50 км 1/1 800 м
[Cu med, cong]
+27.8 +19.3 60 +33 +38 очень
душно
1013.1 1007.1
00 11.08 В 6
{10}
50 км 1/1 800 м
[Cu med, cong]
+27.3 +19.9 64 +33 +37 очень
душно
1012.2 1006.2 +22.2
01 11.08 В 7
{11}
50 км 1/1 800 м
[Cu med, cong]
+26.8 +19.9 66 +33 +34 очень
душно
1011.9 1005.9
02 11.08 В 5
{12}
50 км 1/1 800 м
[Cu med, cong]
+26.2 +20.5 71 +33 +33 очень
душно
1012.4 1006.4
03 11.08 В 1 н/о н/о +25.8 +21.0 75 +32 +32 очень
душно
1013.5 1007.4
04 11.08 СЗ 1 н/о н/о +23.7 +20.6 83 +30 +30 очень
душно
1013.6 1007.5
05 11.08 штиль 0 н/о н/о +22.7 +20.2 86 +29 +29 очень
душно
1014.4 1008.3
06 11.08 С 1 н/о н/о +22.2 +19.7 86 +28 +28 душно 1014.6 1008.5
07 11.08 СВ 1 н/о н/о +21.9 +19.6 87 +27 +27 душно 1015.2 1009.0
08 11.08 СВ 1 н/о н/о +21.6 +19.5 88 +27 +27 душно 1015.0 1008.8
09 11.08 СВ 1 н/о н/о +21.7 +19.4 87 +27 +27 душно 1014.9 1008.7
10 11.08 СВ 1 н/о н/о +22.3 +20.0 87 +28 +28 душно 1014.3 1008.2
11 11.08 СВ 1 н/о н/о +22.6 +19.9 85 +29 +29 очень
душно
1013.8 1007.7
12 11.08 СЗ 1 н/о н/о +23.1 +20.6 86 +30 +30 очень
душно
1013.4 1007.3 +29.1 +29.1
13 11.08 СВ 1 н/о н/о +23.1 +20.6 86 +30 +30 очень
душно
1013.2 1007.1
14 11.08 С 1 н/о н/о +23.0 +20.7 87 +30 +30 очень
душно
1013.3 1007.2
15 11.08 СВ 2
{3}
50 км 3/3 700 м
[Cu Sc]
+22.5 +20.6 89 +29 +29 очень
душно
1013.7 1007.6
16 11.08 С 1
{4}
50 км 6/6 630 м
[Cu Sc]
+22.7 +20.8 89 +30 +30 очень
душно
1014.2 1008.1
17 11.08 С 1
{4}
50 км в посл. час ливневой дождь 4/4 630 м
[Cu Sc]
+24.8 +20.9 79 +31 +33 очень
душно
1014.6 1008.5 0.2
18 11.08 СЗ 1
{3}
50 км {ливн. осадки, дождь} 4/4 630 м
[Cu Sc]
+25.8 +22.5 82 +34 +40 очень
душно
1014.9 1008.8 0.2
19 11.08 ЮВ 3
{9}
50 км 4/4 630 м
[Cu Sc]
+29.2 +20.4 59 +36 +42 очень
душно
1014.6 1008.6
20 11.08 В 8
{12}
50 км 3/3 700 м
[Cu Sc]
+28.2 +20.7 64 +35 +38 очень
душно
1014.2 1008.2
21 11.08 В 7
{12}
50 км 3/3 700 м
[Cu Sc]
+28.6 +20.3 61 +35 +39 очень
душно
1013.3 1007.3
22 11.08 В 7
{13}
50 км 3/3 700 м
[Cu Sc]
+28.0 +20.8 65 +35 +39 очень
душно
1012.6 1006.6
23 11.08 В 7
{12}
50 км 3/3 700 м
[Cu med, cong]
+27.9 +21.0 66 +35 +38 очень
душно
1011.9 1005.9
00 12.08 В 7
{12}
50 км 3/3 700 м
[Cu med, cong]
+27.7 +20.8 66 +35 +37 очень
душно
1011.4 1005.4 +21.6
01 12.08 В 7
{10}
50 км 1/1 700 м
[Cu med, cong]
+27.4 +20.7 67 +34 +36 очень
душно
1011.2 1005.2
02 12.08 В 5
{8}
50 км 1/1 750 м
[Cu med, cong]
+26.7 +21.0 71 +34 +34 очень
душно
1011.5 1005.5
03 12.08 В 1 н/о н/о +26.1 +20.7 72 +33 +33 очень
душно
1012.3 1006.3
04 12.08 СЗ 1 н/о н/о +24.1 +20.8 82 +30 +30 очень
душно
1013.3 1007.2
05 12.08 штиль 0 н/о н/о +23.8 +21.1 85 +30 +30 очень
душно
1013.7 1007.6
06 12.08 СЗ 1 н/о н/о +23.7 +20.8 84 +30 +30 очень
душно
1014.4 1008.3
07 12.08 СЗ 1 н/о н/о +24.0 +21.3 85 +30 +30 очень
душно
1014.5 1008.4
08 12.08 СЗ 1 н/о н/о +24.2 +21.5 85 +31 +31 очень
душно
1014.5 1008.4
09 12.08 СВ 1 н/о н/о +23.8 +21.3 86 +30 +30 очень
душно
1014.3 1008.2
10 12.08 СВ 1 н/о н/о +23.6 +21.3 87 +30 +30 очень
душно
1014.0 1007.9
11 12.08 С 1 н/о н/о +23.4 +21.5 89 +32 +32 очень
душно
1013.6 1007.5
12 12.08 СЗ 1 н/о н/о +23.3 +21.7 91 +32 +32 очень
душно
1013.3 1007.2 +29.8 +29.8 0.6
13 12.08 С 1 н/о н/о +23.3 +21.6 90 +31 +31 очень
душно
1013.4 1007.3
14 12.08 С 1 н/о н/о +23.4 +21.7 90 +32 +32 очень
душно
1013.8 1007.7 0.2
15 12.08 С 3
{6}
40 км в посл. час ливневой дождь 8/8 600 м
[Cu med, cong]
+23.4 +22.2 93 +32 +32 очень
душно
1014.5 1008.4 0.6
16 12.08 С 1
{6}
40 км в посл. час ливневой дождь 6/6 600 м
[Cu Sc]
+23.4 +22.4 94 +32 +32 очень
душно
1015.1 1009.0 0.2
17 12.08 СЗ 1
{4}
40 км 4/4 630 м
[Cu med, cong]
+25.2 +22.9 87 +33 +36 очень
душно
1015.7 1009.6
18 12.08 ЮВ 3
{8}
40 км в посл. час ливневой дождь 4/4 630 м
[Cu med, cong]
+26.5 +21.9 76 +34 +38 очень
душно
1016.1 1010.0 0.6
19 12.08 В 5
{8}
40 км 4/4 630 м
[Cu med, cong]
+26.7 +21.9 75 +34 +39 очень
душно
1015.9 1009.9
20 12.08 В 5
{10}
40 км 4/4 630 м
[Cu med, cong]
+28.1 +21.6 68 +36 +41 очень
душно
1015.4 1009.4
21 12.08 В 6
{10}
40 км 4/4 630 м
[Cu med, cong]
+27.6 +21.6 70 +35 +40 очень
душно
1014.5 1008.5
22 12.08 В 7
{12}
40 км 6/6 630 м
[Cu Sc]
+27.6 +21.6 70 +35 +37 очень
душно
1013.7 1007.7
23 12.08 В 6
{10}
40 км 4/4 630 м
[Cu med, cong]
+27.6 +21.6 70 +35 +39 очень
душно
1012.7 1006.7
00 13.08 В 7
{11}
30 км 5/5 630 м
[Cu med, cong]
+26.4 +21.4 74 +34 +35 очень
душно
1012.0 1006.0 +23.1 0.2
01 13.08 В 7
{11}
30 км 5/5 630 м
[Cu med, cong]
+26.4 +20.3 69 +33 +33 очень
душно
1011.5 1005.5
02 13.08 В 5
{11}
30 км 3/3 750 м
[Cu med, cong]
+26.4 +20.9 72 +33 +34 очень
душно
1011.8 1005.8
03 13.08 СЗ 1 н/о н/о +26.0 +21.4 76 +33 +33 очень
душно
1012.4 1006.4
04 13.08 З 1 н/о н/о +24.6 +21.7 84 +31 +31 очень
душно
1013.0 1006.9
05 13.08 СЗ 1 н/о н/о +23.9 +21.8 88 +31 +31 очень
душно
1013.4 1007.3
06 13.08 С 1 н/о н/о +23.9 +21.4 86 +30 +30 очень
душно
1013.9 1007.8
07 13.08 СЗ 1 н/о н/о +23.7 +21.4 87 +30 +30 очень
душно
1013.9 1007.8
08 13.08 СВ 1 н/о н/о +23.4 +21.3 88 +31 +31 очень
душно
1013.9 1007.8
09 13.08 СЗ 1 н/о н/о +23.4 +21.3 88 +31 +31 очень
душно
1013.7 1007.6
10 13.08 З 1 н/о н/о +23.9 +21.4 86 +30 +30 очень
душно
1013.2 1007.1
11 13.08 С 1 н/о н/о +23.8 +21.7 88 +30 +30 очень
душно
1012.6 1006.5 0.2
12 13.08 С 1 н/о н/о +23.8 +21.5 87 +30 +30 очень
душно
1012.2 1006.1 +28.4 +28.4 0.2
13 13.08 В 1 н/о н/о +24.5 +21.4 83 +31 +31 очень
душно
1012.3 1006.2
14 13.08 С 1 н/о н/о +23.4 +21.3 88 +31 +31 очень
душно
1012.5 1006.4
15 13.08 СВ 1
{4}
30 км 3/3 750 м
[Cu med, cong]
+23.0 +20.9 88 +30 +30 очень
душно
1013.0 1006.9
16 13.08 С 1
{4}
35 км 3/3 750 м
[Cu med, cong]
+23.0 +21.1 89 +31 +31 очень
душно
1013.7 1007.6
17 13.08 СВ 2
{4}
н/о н/о +23.8 +21.5 87 +30 +30 очень
душно
1014.3 1008.2
18 13.08 В 1
{4}
35 км 4/4 700 м
[Cu Sc]
+28.9 +23.1 71 +39 +44 очень
душно
1014.5 1008.5
19 13.08 В 8
{12}
35 км 4/4 700 м
[Cu Sc]
+28.2 +21.5 67 +36 +38 очень
душно
1014.2 1008.2
20 13.08 В 7
{11}
35 км 5/5 700 м
[Cu Sc]
+27.3 +21.6 71 +35 +38 очень
душно
1013.8 1007.8
21 13.08 В 5
{11}
35 км 5/5 700 м
[Cu Sc]
+28.0 +22.2 71 +37 +41 очень
душно
1013.2 1007.2
22 13.08 В 7
{12}
15 км осадки на расстоянии 4/4 600 м
[Cu Sc]
+28.2 +22.7 72 +37 +40 очень
душно
1012.3 1006.3
23 13.08 В 5
{11}
15 км осадки на расстоянии 4/4 600 м
[Cu Sc]
+27.9 +22.6 73 +37 +42 очень
душно
1011.5 1005.5
00 14.08 В 5
{10}
8000 м осадки на расстоянии 5/5 600 м
[Cu Sc]
+27.8 +22.5 73 +37 +39 очень
душно
1011.1 1005.1 +22.8
01 14.08 В 5
{10}
12 км осадки на расстоянии 6/6 600 м
[Cu Sc]
+27.0 +22.8 78 +36 +37 очень
душно
1011.1 1005.1
02 14.08 ЮВ 1
{10}
15 км осадки на расстоянии 6/6 600 м
[Cu Sc]
+26.7 +22.3 77 +35 +36 очень
душно
1011.4 1005.4
03 14.08 В 2 н/о н/о +25.6 +22.7 84 +34 +34 очень
душно
1011.9 1005.9 0.2
04 14.08 СВ 1 н/о н/о +25.0 +23.1 89 +33 +33 очень
душно
1012.5 1006.4 0.4
05 14.08 З 1 н/о н/о +24.7 +22.8 89 +33 +33 очень
душно
1013.1 1007.0
06 14.08 С 1 н/о н/о +24.0 +22.4 91 +31 +31 очень
душно
1013.6 1007.5 0.4
07 14.08 СВ 1 н/о н/о +23.6 +22.2 92 +31 +31 очень
душно
1013.8 1007.7
08 14.08 СВ 1 н/о н/о +23.2 +21.8 92 +31 +31 очень
душно
1013.6 1007.5
09 14.08 СВ 1 н/о н/о +23.3 +22.1 93 +32 +32 очень
душно
1013.4 1007.3 0.8
10 14.08 СВ 1 н/о н/о +23.3 +22.3 94 +32 +32 очень
душно
1013.0 1006.9
11 14.08 штиль 0 н/о н/о +22.6 +21.4 93 +30 +30 очень
душно
1012.6 1006.5
12 14.08 С 1 н/о н/о +22.5 +21.1 92 +30 +30 очень
душно
1012.4 1006.3 +29.0 +29.0 0.8
13 14.08 С 1 н/о н/о +22.4 +21.2 93 +29 +29 очень
душно
1012.4 1006.3
14 14.08 С 1 н/о н/о +22.5 +21.3 93 +30 +30 очень
душно
1012.7 1006.6
15 14.08 СВ 2
{4}
30 км 4/4 700 м
[Cu Sc]
+22.8 +21.1 90 +30 +30 очень
душно
1013.3 1007.2
16 14.08 С 2
{4}
н/о н/о +22.7 +20.8 89 +30 +30 очень
душно
1013.7 1007.6
17 14.08 С 2
{4}
н/о н/о +25.6 +21.1 76 +32 +32 очень
душно
1014.5 1008.4
18 14.08 В 3
{6}
35 км 6/3 750 м
[Cu med, cong Ci fib]
+27.3 +19.6 63 +33 +37 очень
душно
1014.8 1008.8
19 14.08 В 4
{9}
н/о н/о +28.2 +19.7 60 +34 +34 очень
душно
1014.7 1008.7
20 14.08 В 5
{9}
35 км 6/3 750 м
[Cu med, cong Ci fib]
+28.4 +20.4 62 +35 +41 очень
душно
1014.4 1008.4
21 14.08 В 5
{9}
35 км 8/3 750 м
[Cu med, cong Ci fib]
+28.5 +21.5 66 +36 +43 очень
душно
1013.6 1007.6
22 14.08 В 4
{9}
н/о н/о +28.6 +20.3 61 +35 +35 очень
душно
1012.7 1006.7
23 14.08 В 4
{8}
н/о н/о +28.4 +19.9 60 +35 +35 очень
душно
1011.7 1005.7
00 15.08 В 5 40 км 8/3 750 м
[Cu hum Ci fib]
+27.6 +19.9 63 +34 +37 очень
душно
1011.1 1005.1 +22.3
01 15.08 В 5
{9}
40 км 8/3 750 м
[Cu hum Ci fib]
+26.9 +20.0 66 +33 +35 очень
душно
1011.0 1005.0
02 15.08 В 4
{9}
40 км 8/3 750 м
[Cu hum Ci fib]
+26.1 +19.5 67 +32 +32 очень
душно
1011.4 1005.4
03 15.08 В 2 н/о н/о +25.8 +20.4 72 +32 +32 очень
душно
1011.9 1005.9
04 15.08 штиль 0 н/о н/о +24.8 +21.1 80 +31 +31 очень
душно
1012.6 1006.5
05 15.08 С 1 н/о н/о +23.7 +20.8 84 +30 +30 очень
душно
1013.2 1007.1
06 15.08 С 1 н/о н/о +23.3 +21.0 87 +31 +31 очень
душно
1013.4 1007.3
07 15.08 СЗ 1 н/о н/о +23.0 +21.1 89 +31 +31 очень
душно
1013.7 1007.6
08 15.08 С 1 н/о н/о +22.7 +20.8 89 +30 +30 очень
душно
1013.6 1007.5
09 15.08 С 1 н/о н/о +22.6 +20.9 90 +30 +30 очень
душно
1013.2 1007.1
10 15.08 СЗ 1 н/о н/о +22.6 +20.7 89 +29 +29 очень
душно
1012.8 1006.7
11 15.08 СВ 1 н/о н/о +22.7 +21.0 90 +30 +30 очень
душно
1012.4 1006.3
12 15.08 С 1 н/о н/о +22.5 +20.6 89 +29 +29 очень
душно
1012.1 1006.0 +28.8 +28.8
13 15.08 С 1 н/о н/о +22.3 +20.4 89 +29 +29 очень
душно
1012.0 1005.9
14 15.08 СВ 1 н/о н/о +21.9 +20.4 91 +28 +28 душно 1012.4 1006.3
15 15.08 СВ 2
{4}
40 км 4/4 630 м
[Cu med, cong]
+21.7 +19.8 89 +27 +27 душно 1012.8 1006.7
16 15.08 СВ 1
{2}
40 км 8/4 630 м
[Cu med, cong Ci fib]
+21.7 +20.0 90 +27 +27 душно 1013.5 1007.4
17 15.08 штиль 0
{3}
40 км 6/4 630 м
[Cu med, cong Ci fib]
+24.1 +20.4 80 +30 +32 очень
душно
1014.2 1008.1
18 15.08 В 2
{4}
40 км 5/4 700 м
[Cu med, cong Ci fib]
+27.7 +19.2 60 +33 +38 очень
душно
1014.4 1008.4
19 15.08 В 7
{9}
40 км 3/3 700 м
[Cu med, cong Ci fib]
+28.0 +18.1 55 +33 +35 очень
душно
1014.2 1008.2
20 15.08 В 6
{11}
40 км 3/3 700 м
[Cu med, cong Ci fib]
+27.8 +18.8 58 +33 +38 очень
душно
1013.7 1007.7
21 15.08 В 6
{11}
40 км 3/3 700 м
[Cu med, cong Ci fib]
+27.9 +19.7 61 +34 +40 очень
душно
1013.2 1007.2
22 15.08 В 6
{11}
40 км 3/3 700 м
[Cu med, cong Ci fib]
+28.1 +19.6 60 +34 +40 очень
душно
1012.3 1006.3
23 15.08 В 5
{10}
40 км 3/3 750 м
[Cu med, cong Ci fib]
+27.8 +19.1 59 +33 +39 очень
душно
1011.5 1005.5
00 16.08 В 4
{7}
50 км 3/3 750 м
[Cu med, cong Ci fib]
+27.3 +18.9 60 +32 +38 очень
душно
1010.7 1004.7 +21.4
01 16.08 В 4
{8}
50 км 3/3 750 м
[Cu med, cong Ci fib]
+27.3 +18.9 60 +32 +35 очень
душно
1010.4 1004.4
02 16.08 В 4
{7}
50 км 3/3 750 м
[Cu med, cong Ci fib]
+26.4 +19.3 65 +32 +33 очень
душно
1010.5 1004.5
03 16.08 З 1 н/о н/о +25.4 +19.3 69 +31 +31 очень
душно
1011.6 1005.5
04 16.08 штиль 0 н/о н/о +23.4 +19.8 80 +30 +30 очень
душно
1012.3 1006.2
05 16.08 штиль 0 н/о н/о +22.5 +19.7 84 +29 +29 очень
душно
1012.9 1006.8
06 16.08 СЗ 1 н/о н/о +21.9 +19.6 87 +27 +27 душно 1013.2 1007.1
07 16.08 штиль 0 н/о н/о +21.7 +19.4 87 +27 +27 душно 1013.2 1007.1
08 16.08 СЗ 1 н/о н/о +21.5 +19.4 88 +26 +26 душно 1013.0 1006.9
09 16.08 С 1 н/о н/о +21.6 +19.2 86 +27 +27 душно 1012.6 1006.5
10 16.08 С 1 н/о н/о +21.6 +19.2 86 +27 +27 душно 1012.0 1005.9
11 16.08 С 1 н/о н/о +21.4 +19.3 88 +26 +26 душно 1011.1 1005.0
12 16.08 штиль 0 н/о н/о +21.2 +19.1 88 +26 +26 душно 1010.6 1004.5 +29.1 +29.1
13 16.08 СВ 1 н/о н/о +21.0 +19.1 89 +27 +27 душно 1010.3 1004.2
14 16.08 штиль 0 н/о н/о +21.0 +19.1 89 +25 +25 комфорт 1010.7 1004.6
15 16.08 штиль 0
{3}
50 км 3/3 700 м
[Cu med, cong]
+21.2 +19.3 89 +26 +26 душно 1011.3 1005.2
16 16.08 С 2
{2}
50 км 3/3 700 м
[Cu med, cong]
+21.7 +20.2 91 +27 +28 душно 1012.1 1006.0

 

Местоположение метеостанции Atuona (Французская Полинезия): широта -9.80 долгота -139.00 высота над уровнем моря 53 м.

В архиве по умолчанию представлена погода в Atuona за последнюю неделю. Архивные данные за месяц целиком и за предыдущие месяцы, начиная с января 2011 года, Вы можете получить, выбрав интересующий диапазон дат из раскрывающегося списка и нажав кнопку "Ввод!".

Внимание! Время в таблицах - всемирное. Для получения местного времени необходимо прибавить поправку, которая в Atuona равна -10 ч.

Смотрите также архив погоды в соседних городах и на ближайших метеорологических станциях:

Погода в Takaroa (Французская Полинезия) (834 км)
Погода в Hao (Французская Полинезия) (941 км)
Погода в Hereheretue (Французская Полинезия) (1295 км)
Погода в Tahiti-Faaa (Французская Полинезия) (1433 км)
Погода в Rikitea (Французская Полинезия) (1545 км)
Погода в Bora-Bora Airport (Французская Полинезия) (1560 км)
Погода в Tubuai (Французская Полинезия) (1869 км)
Погода в Pitcairn Island C (Питкерн) (1942 км)
Погода в Rapa (Французская Полинезия) (2057 км)
Погода в Penrhyn (Кука Острова) (2086 км)

Пояснения к столбцам:

Ветер - указаны скорость ветра в м/с - средняя за 10 мин, порывы в срок и между сроками (в фигурных скобках) и направление, откуда дует ветер: С - северный, СВ - северо-восточный, В - восточный, ЮВ - юго-восточный, Ю - южный, ЮЗ - юго-западный, З - западный, СЗ - северо-западный.
Видимость - горизонтальная дальность видимости в метрах или километрах. При видимости от 1 до 10 км при отсутствии осадков обычно наблюдается дымка, при ухудшении видимости до 1 км и менее - туман. В сухую погоду видимость может ухудшаться дымом, пылью или мглою.
Явления - указаны атмосферные явления, наблюдавшиеся в срок или в последний час перед сроком; фигурными скобками обозначены явления, наблюдавшиеся между сроками (за 1-3 часа до срока); квадратными скобками обозначены град или гололедные отложения с указанием их диаметра в мм.
Облачность - указаны через наклонную черту общая и нижняя облачность в баллах и высота нижней границы облаков в метрах; квадратными скобками обозначены формы облаков: Ci - перистые, Cs - перисто-слоистые, Cc - перисто-кучевые, Ac - высококучевые, As - высокослоистые, Sc - слоисто-кучевые, Ns - слоисто-дождевые, Cu - кучевые, Cb - кучево-дождевые. Подробнее классификацию облаков см. в Атласе облаков (PDF).
T - Температура воздуха - температура, измеренная на высоте 2 м над землей.
Td - Температура точки росы - температура, при понижении до которой содержащийся в воздухе водяной пар достигнет насыщения.
f - Относительная влажность воздуха - влажноcть воздуха, измеренная на высоте 2 м над землей.
Te - Эффективная температура - температура, которую ощущает одетый по сезону человек в тени. Характеристика душности погоды. При расчете учитывается влияние влажности воздуха и скорости ветра на теплоощущения человека.
Tes - Эффективная температура на солнце - температура, которую ощущает человек, с поправкой на солнечный нагрев. Характеристика знойности погоды. Зависит от высоты солнца над горизонтом, облачности и скорости ветра. Ночью, в пасмурную погоду, а также при ветре 12 м/с и более поправка равна нулю.
P - Атмосферное давление - приведенное к уровню моря атмосферное давление.
Po - Атмосферное давление - измеренное на уровне метеостанции атмосферное давление.
Tmin - Минимальная температура - минимум температуры воздуха на высоте 2 м над землей.
Tmax - Максимальная температура - максимум температуры воздуха на высоте 2 м над землей.
R - Количество осадков - Количество выпавших осадков за период времени, мм. При наведении курсора мыши на число - период времени, за который выпало указанное количество осадков.
R24 - Количество осадков - Количество выпавших осадков за 24 часа, мм.
S - Снежный покров - Высота снежного покрова, см. При наведении курсора мыши на число - состояние снежного покрова и степень покрытия местности в баллах.